Location: ????????
(56.1167°N, 38.6333°E)
Time: 08:02:29
(UTC+00:00)

Cosmos 2263 Rocket - Pass Details

Date: 18 November 2025
Orbit: 822 x 848 km, 71.0° (Epoch: 14 December)

Event Time Altitude Azimuth Distance (km) Brightness Sun altitude
Rises 14:28:57 0° 275° (W) 3,366 6.7 -10.4°
Reaches altitude 10° 14:31:58 10° 290° (WNW) 2,438 5.4 -10.8°
Maximum altitude 14:36:13 22° 340° (NNW) 1,766 3.9 -11.3°
Drops below altitude 10° 14:40:29 10° 30° (NNE) 2,455 4.2 -11.9°
Enters shadow 14:41:03 - 34° (NNE) 2,612 4.3 -12.0°
